When you browse on this site, cookies collect data to enhance your experience and personalize the content and advertising you see.
Visit our Privacy Policy to learn more. By continuing to use the site, you agree to this use of cookies and data.
  • en France
  • Liste des pays
  • À 7 jours
  • Température de l'eau
  • Carte satellitaire
  • Carte météo
  • Widgets météo
  • user-avatar
    Se connecter

    Météo par heure à Álvaro Obregón

    Ce jour, 19 Juillet, Vendredi

    Heure Température Précipitation Vent Pression Humidité
    00:00 +15°C° 0.1 mm 0 m/s 612 mmHg 92%
    01:00 +15°C° 0.1 mm 0 m/s 612 mmHg 93%
    02:00 +15°C° 0.1 mm 0 m/s 612 mmHg 93%
    03:00 +15°C° 0 mm 0 m/s 612 mmHg 93%
    04:00 +15°C° 0 mm 1 m/s 612 mmHg 94%
    05:00 +15°C° 0 mm 1 m/s 612 mmHg 94%
    06:00 +18°C° 0 mm 1 m/s 612 mmHg 91%
    07:00 +17°C° 0 mm 0 m/s 613 mmHg 88%
    08:00 +18°C° 0 mm 0 m/s 614 mmHg 85%
    09:00 +20°C° 0.3 mm 0 m/s 614 mmHg 79%
    10:00 +24°C° 0.3 mm 1 m/s 615 mmHg 72%
    11:00 +26°C° 0.3 mm 1 m/s 615 mmHg 66%
    12:00 +25°C° 2.2 mm 1 m/s 614 mmHg 69%
    13:00 +25°C° 2.2 mm 1 m/s 613 mmHg 73%
    14:00 +25°C° 2.2 mm 1 m/s 613 mmHg 77%
    15:00 +23°C° 1.4 mm 1 m/s 612 mmHg 81%
    16:00 +21°C° 1.4 mm 1 m/s 611 mmHg 86%
    17:00 +20°C° 1.4 mm 1 m/s 610 mmHg 91%
    18:00 +19°C° 0.3 mm 1 m/s 611 mmHg 92%
    19:00 +18°C° 0.3 mm 1 m/s 611 mmHg 93%
    20:00 +16°C° 0.3 mm 1 m/s 612 mmHg 94%
    21:00 +16°C° 0.9 mm 1 m/s 612 mmHg 95%
    22:00 +16°C° 0.9 mm 1 m/s 612 mmHg 96%
    23:00 +16°C° 0.9 mm 1 m/s 612 mmHg 97%

    Demain, 20 Juillet, Samedi

    Heure Température Précipitation Vent Pression Humidité
    00:00 +15°C° 0.6 mm 0 m/s 612 mmHg 97%
    01:00 +15°C° 0.6 mm 0 m/s 612 mmHg 97%
    02:00 +15°C° 0.6 mm 0 m/s 611 mmHg 97%
    03:00 +14°C° 0.2 mm 0 m/s 611 mmHg 98%
    04:00 +14°C° 0.2 mm 0 m/s 611 mmHg 98%
    05:00 +14°C° 0.2 mm 0 m/s 611 mmHg 98%
    06:00 +15°C° 0.1 mm 0 m/s 612 mmHg 95%
    07:00 +16°C° 0.1 mm 0 m/s 613 mmHg 91%
    08:00 +17°C° 0.1 mm 0 m/s 613 mmHg 88%
    09:00 +19°C° 0.2 mm 0 m/s 614 mmHg 82%
    10:00 +20°C° 0.2 mm 0 m/s 614 mmHg 76%
    11:00 +22°C° 0.2 mm 0 m/s 615 mmHg 71%
    12:00 +24°C° 0.8 mm 1 m/s 614 mmHg 71%
    13:00 +24°C° 0.8 mm 1 m/s 613 mmHg 72%
    14:00 +24°C° 0.8 mm 2 m/s 612 mmHg 72%
    15:00 +23°C° 0.7 mm 1 m/s 612 mmHg 77%
    16:00 +22°C° 0.7 mm 1 m/s 611 mmHg 82%
    17:00 +21°C° 0.7 mm 1 m/s 611 mmHg 87%
    18:00 +20°C° 0.3 mm 1 m/s 611 mmHg 89%
    19:00 +19°C° 0.3 mm 1 m/s 611 mmHg 91%
    20:00 +18°C° 0.3 mm 1 m/s 611 mmHg 94%
    21:00 +16°C° 0 mm 1 m/s 612 mmHg 94%
    22:00 +16°C° 0 mm 1 m/s 612 mmHg 94%
    23:00 +16°C° 0 mm 1 m/s 612 mmHg 95%

    Après-demain, 21 Juillet, Dimanche

    Heure Température Précipitation Vent Pression Humidité
    00:00 +15°C° 0 mm 1 m/s 611 mmHg 95%
    01:00 +14°C° 0 mm 0 m/s 611 mmHg 95%
    02:00 +13°C° 0 mm 0 m/s 611 mmHg 95%
    03:00 +13°C° 0 mm 0 m/s 611 mmHg 94%
    04:00 +13°C° 0 mm 0 m/s 611 mmHg 94%
    05:00 +13°C° 0 mm 0 m/s 611 mmHg 93%
    06:00 +14°C° 0 mm 0 m/s 612 mmHg 92%
    07:00 +15°C° 0 mm 0 m/s 613 mmHg 90%
    08:00 +16°C° 0 mm 0 m/s 613 mmHg 88%
    09:00 +18°C° 0 mm 0 m/s 614 mmHg 80%
    10:00 +20°C° 0 mm 0 m/s 614 mmHg 71%
    11:00 +24°C° 0 mm 1 m/s 615 mmHg 63%
    12:00 +24°C° 0.2 mm 1 m/s 615 mmHg 61%
    13:00 +25°C° 0.2 mm 1 m/s 614 mmHg 60%
    14:00 +26°C° 0.2 mm 1 m/s 614 mmHg 58%
    15:00 +24°C° 0.9 mm 1 m/s 614 mmHg 67%
    16:00 +23°C° 0.9 mm 1 m/s 613 mmHg 76%
    17:00 +22°C° 0.9 mm 1 m/s 612 mmHg 85%
    18:00 +20°C° 0.7 mm 1 m/s 613 mmHg 88%
    19:00 +19°C° 0.7 mm 1 m/s 613 mmHg 90%
    20:00 +18°C° 0.7 mm 1 m/s 613 mmHg 92%
    21:00 +16°C° 0.2 mm 1 m/s 613 mmHg 93%
    22:00 +16°C° 0.2 mm 1 m/s 613 mmHg 93%
    23:00 +16°C° 0.2 mm 1 m/s 613 mmHg 94%

    22 Juillet, Lundi

    Heure Température Précipitation Vent Pression Humidité
    00:00 +15°C° 0.1 mm 1 m/s 612 mmHg 94%
    01:00 +15°C° 0.1 mm 1 m/s 612 mmHg 95%
    02:00 +15°C° 0.1 mm 1 m/s 611 mmHg 95%
    03:00 +14°C° 0 mm 1 m/s 611 mmHg 95%
    04:00 +13°C° 0 mm 0 m/s 611 mmHg 96%
    05:00 +13°C° 0 mm 0 m/s 611 mmHg 96%
    06:00 +14°C° 0.1 mm 0 m/s 612 mmHg 94%
    07:00 +16°C° 0.1 mm 0 m/s 613 mmHg 92%
    08:00 +17°C° 0.1 mm 0 m/s 614 mmHg 90%
    09:00 +19°C° 0.6 mm 0 m/s 614 mmHg 84%
    10:00 +21°C° 0.6 mm 0 m/s 615 mmHg 78%
    11:00 +23°C° 0.6 mm 0 m/s 616 mmHg 72%
    12:00 +23°C° 1.5 mm 0 m/s 615 mmHg 72%
    13:00 +23°C° 1.5 mm 0 m/s 614 mmHg 73%
    14:00 +25°C° 1.5 mm 1 m/s 613 mmHg 74%
    15:00 +21°C° 1.4 mm 0 m/s 613 mmHg 79%
    16:00 +20°C° 1.4 mm 0 m/s 612 mmHg 84%
    17:00 +18°C° 1.4 mm 0 m/s 611 mmHg 89%
    18:00 +17°C° 0.4 mm 0 m/s 611 mmHg 90%
    19:00 +19°C° 0.4 mm 1 m/s 612 mmHg 92%
    20:00 +18°C° 0.4 mm 1 m/s 612 mmHg 93%
    21:00 +18°C° 0.1 mm 1 m/s 612 mmHg 93%
    22:00 +16°C° 0.1 mm 0 m/s 612 mmHg 93%
    23:00 +16°C° 0.1 mm 0 m/s 613 mmHg 93%

    23 Juillet, Mardi

    Heure Température Précipitation Vent Pression Humidité
    00:00 +15°C° 0.1 mm 0 m/s 613 mmHg 93%
    01:00 +15°C° 0.1 mm 0 m/s 612 mmHg 93%
    02:00 +15°C° 0.1 mm 0 m/s 612 mmHg 92%
    03:00 +15°C° 0 mm 0 m/s 612 mmHg 93%
    04:00 +15°C° 0 mm 0 m/s 612 mmHg 93%
    05:00 +14°C° 0 mm 0 m/s 612 mmHg 94%
    06:00 +16°C° 0.1 mm 0 m/s 613 mmHg 90%
    07:00 +18°C° 0.1 mm 0 m/s 614 mmHg 86%
    08:00 +19°C° 0.1 mm 0 m/s 615 mmHg 82%
    09:00 +23°C° 0.8 mm 1 m/s 615 mmHg 78%
    10:00 +24°C° 0.8 mm 1 m/s 615 mmHg 74%
    11:00 +25°C° 0.8 mm 1 m/s 615 mmHg 69%
    12:00 +25°C° 1.2 mm 1 m/s 615 mmHg 70%
    13:00 +25°C° 1.2 mm 1 m/s 614 mmHg 70%
    14:00 +25°C° 1.2 mm 1 m/s 613 mmHg 70%
    15:00 +24°C° 1.5 mm 1 m/s 613 mmHg 76%
    16:00 +23°C° 1.5 mm 1 m/s 612 mmHg 81%
    17:00 +21°C° 1.5 mm 1 m/s 612 mmHg 87%
    18:00 +20°C° 0.3 mm 1 m/s 612 mmHg 89%
    19:00 +19°C° 0.3 mm 1 m/s 612 mmHg 91%
    20:00 +18°C° 0.3 mm 1 m/s 612 mmHg 93%
    21:00 +16°C° 0 mm 1 m/s 612 mmHg 93%
    22:00 +15°C° 0 mm 0 m/s 612 mmHg 93%
    23:00 +14°C° 0 mm 0 m/s 612 mmHg 93%

    24 Juillet, Mercredi

    Heure Température Précipitation Vent Pression Humidité
    00:00 +14°C° 0 mm 0 m/s 612 mmHg 94%
    01:00 +13°C° 0 mm 0 m/s 612 mmHg 94%
    02:00 +13°C° 0 mm 0 m/s 611 mmHg 94%
    03:00 +13°C° 0 mm 0 m/s 611 mmHg 94%
    04:00 +13°C° 0 mm 0 m/s 611 mmHg 95%
    05:00 +12°C° 0 mm 0 m/s 611 mmHg 95%
    06:00 +15°C° 0 mm 0 m/s 612 mmHg 90%
    07:00 +17°C° 0 mm 0 m/s 613 mmHg 86%
    08:00 +19°C° 0 mm 0 m/s 614 mmHg 81%
    09:00 +20°C° 0.4 mm 0 m/s 615 mmHg 77%
    10:00 +22°C° 0.4 mm 0 m/s 615 mmHg 73%
    11:00 +24°C° 0.4 mm 0 m/s 615 mmHg 69%
    12:00 +23°C° 1.3 mm 0 m/s 614 mmHg 71%
    13:00 +23°C° 1.3 mm 0 m/s 614 mmHg 72%
    14:00 +25°C° 1.3 mm 1 m/s 613 mmHg 74%
    15:00 +24°C° 1.7 mm 1 m/s 612 mmHg 79%
    16:00 +22°C° 1.7 mm 1 m/s 612 mmHg 83%
    17:00 +21°C° 1.7 mm 1 m/s 612 mmHg 88%
    18:00 +20°C° 1 mm 1 m/s 612 mmHg 89%
    19:00 +19°C° 1 mm 1 m/s 612 mmHg 90%
    20:00 +18°C° 1 mm 1 m/s 612 mmHg 91%
    21:00 +18°C° 0.9 mm 1 m/s 612 mmHg 93%
    22:00 +16°C° 0.9 mm 1 m/s 612 mmHg 95%
    23:00 +16°C° 0.9 mm 1 m/s 612 mmHg 97%
    Voir plus